Dewpoint
75 74 73 74 73 77 74 75 73 72 71 70 69 69 69 71 68 68 72 75 75 75 74 74 74 75 75 75 74 73 73 73 73 72 73 72 73 72 71 72 72 70 70
73 72 72 71 71 72 74 75 77 71 71 71 68 69 71 70 70 71 66 73 76 75 75 74 75 75 74 75 75 75 74 73 74 74 73 73 74 73 72 72 72 72 72
73 73 70 68 72 74 75 75 76 76 73 71 72 72 72 71 67 72 71 72 72 75 75 75 75 75 75 75 74 74 74 74 74 73 74 73 73 74 73 73 73 73 73
72 73 74 70 70 71 73 76 77 72 75 73 75 69 71 71 73 72 70 68 73 69 73 75 75 75 75 75 74 73 74 73 72 73 73 73 73 73 73 74 73 73 73
72 74 71 70 74 70 78 74 71 73 72 72 72 74 70 70 71 67 69 69 71 70 70 73 74 75 75 73 74 72 72 73 72 72 72 72 72 72 73 73 73 73 73
71 76 74 75 74 76 77 70 74 75 70 70 68 65 70 70 69 69 66 65 69 70 68 70 74 71 75 75 74 74 74 73 73 72 73 73 72 72 73 72 72 73 73
74 75 77 76 76 76 73 73 71 72 67 68 68 66 68 69 68 68 67 63 65 69 68 68 70 70 72 74 74 74 74 74 74 72 73 73 73 73 73 72 72 72 72
72 72 73 74 72 73 73 72 72 71 71 72 69 72 66 64 66 65 67 65 63 64 65 68 70 74 75 72 73 74 74 74 73 74 73 73 73 72 72 72 72 71 72
70 70 71 70 72 72 65 74 72 72 72 73 72 69 66 67 67 66 69 70 71 70 65 69 72 71 75 73 73 73 73 73 72 72 73 73 73 72 71 72 72 71 72
69 68 70 70 71 69 73 70 75 73 73 70 73 73 68 70 69 68 72 73 72 70 72 72 73 73 73 74 73 72 71 71 72 71 72 72 72 71 70 71 72 71 71
68 68 70 73 72 74 74 73 73 73 74 72 72 72 71 68 67 70 66 69 68 69 70 71 72 73 73 71 70 70 69 68 69 69 69 69 69 69 69 69 69 70 70
67 70 70 71 72 72 73 74 73 72 73 73 73 69 67 71 70 67 69 67 67 67 68 69 69 69 70 70 70 69 68 67 68 68 68 68 68 69 69 69 70 70 70
65 70 71 71 70 72 72 73 73 73 72 72 72 72 69 71 71 73 71 67 66 68 66 66 68 69 69 70 68 67 67 66 65 66 66 66 67 67 67 68 68 69 69
69 69 70 70 70 71 71 71 69 69 70 71 71 73 73 73 74 74 72 68 65 67 67 63 65 66 67 67 67 66 64 64 64 64 64 64 64 65 66 66 66 66 66
66 68 68 68 69 69 69 70 68 70 70 70 71 71 73 74 75 74 73 72 66 64 64 64 63 65 66 66 66 64 63 63 63 62 62 62 62 63 63 63 63 64 64
69 69 67 67 68 69 70 71 68 69 68 67 68 70 71 73 73 73 73 72 72 69 63 64 62 63 63 64 64 63 62 61 61 60 60 60 60 61 61 61 61 62 62
67 67 66 67 66 67 67 67 68 67 67 67 68 68 68 70 73 71 73 73 72 72 62 60 61 61 61 61 60 61 61 61 59 58 57 57 57 57 57 58 59 59 60
67 66 66 66 65 65 66 65 64 66 65 65 65 67 67 65 68 69 67 70 71 71 63 58 59 58 58 59 60 59 58 58 57 56 55 55 54 54 54 55 55 56 56
65 64 65 65 64 64 64 64 64 64 64 64 65 65 65 67 66 66 66 66 65 66 63 59 57 58 58 58 57 57 56 57 56 57 55 54 53 53 54 54 54 54 54
64 64 65 64 63 63 63 62 63 63 63 63 64 63 62 63 65 66 66 68 66 62 61 59 57 57 58 58 58 56 54 54 53 53 55 55 54 54 53 53 53 54 54
64 64 64 63 62 60 59 60 62 62 62 62 62 60 61 61 61 61 63 66 67 61 59 58 57 57 57 57 57 57 56 55 55 55 54 54 54 54 52 53 52 53 54
65 65 64 62 61 55 59 60 60 59 59 60 60 60 62 61 60 59 59 59 63 65 63 59 58 58 60 59 58 57 56 56 56 57 57 59 61 58 56 51 52 52 54
66 65 64 63 63 60 57 57 61 58 59 59 59 58 55 55 59 59 59 58 57 58 61 64 62 62 61 62 62 60 60 59 58 57 60 57 55 58 55 50 51 51 52
66 65 64 66 64 59 56 55 58 61 60 60 59 58 56 57 54 56 52 50 51 54 56 52 57 55 57 58 60 59 60 60 58 58 59 55 54 56 55 51 50 50 50
66 64 64 66 63 61 54 55 57 60 60 59 60 59 57 54 54 52 54 52 50 46 49 52 50 51 51 51 52 48 58 45 49 56 56 59 54 57 56 52 49 50 50
66 63 65 64 60 62 53 52 53 57 58 57 59 58 53 54 48 48 56 55 54 53 52 54 53 52 53 52 52 56 45 41 42 48 57 51 52 49 48 53 51 48 47
Lifted_Index
-3 -3 -3 -3 -4 -4 -4 -5 -5 -4 -4 -4 -4 -4 -4 -4 -3 -3 -4 -4 -4 -4 -4 -4 -4 -4 -4 -4 -4 -4 -3 -3 -3 -3 -2 -2 -2 -2 -1 -1 -1 -1 -0
-3 -3 -3 -3 -3 -3 -4 -5 -5 -5 -4 -4 -4 -4 -4 -3 -3 -3 -3 -4 -4 -4 -4 -4 -4 -4 -4 -4 -4 -4 -4 -3 -3 -3 -2 -2 -2 -2 -2 -2 -2 -1 -1
-2 -3 -3 -2 -2 -3 -4 -5 -5 -5 -4 -4 -4 -4 -4 -3 -3 -3 -3 -3 -3 -3 -4 -4 -4 -5 -5 -5 -4 -4 -4 -3 -3 -3 -3 -2 -2 -2 -2 -2 -2 -2 -2
-2 -3 -3 -3 -3 -3 -4 -5 -5 -5 -4 -4 -4 -4 -4 -3 -3 -3 -3 -3 -3 -3 -3 -4 -4 -5 -5 -4 -4 -3 -3 -3 -3 -2 -2 -2 -2 -2 -2 -3 -3 -2 -2
-3 -3 -4 -4 -4 -4 -4 -4 -4 -4 -4 -4 -4 -4 -3 -3 -3 -2 -2 -2 -3 -3 -3 -3 -4 -4 -4 -4 -4 -3 -3 -3 -2 -2 -2 -2 -2 -2 -2 -2 -2 -2 -2
-3 -4 -4 -4 -4 -4 -4 -4 -4 -4 -3 -3 -3 -3 -3 -3 -3 -2 -2 -2 -2 -3 -3 -3 -3 -4 -4 -3 -3 -3 -3 -3 -3 -2 -2 -2 -2 -2 -2 -2 -2 -2 -2
-4 -4 -5 -4 -4 -4 -4 -4 -3 -3 -3 -3 -3 -3 -3 -3 -2 -2 -2 -2 -2 -2 -2 -3 -3 -4 -4 -3 -3 -3 -3 -3 -3 -3 -3 -3 -2 -2 -2 -1 -1 -2 -2
-4 -4 -4 -4 -4 -3 -3 -3 -3 -3 -3 -3 -3 -3 -2 -2 -2 -2 -2 -2 -2 -2 -2 -2 -3 -4 -4 -4 -3 -3 -4 -4 -3 -3 -3 -3 -3 -2 -2 -2 -1 -1 -1
-3 -3 -3 -3 -3 -3 -2 -3 -3 -3 -3 -3 -3 -3 -2 -2 -2 -2 -2 -2 -3 -2 -2 -3 -3 -3 -4 -4 -4 -4 -4 -3 -3 -3 -4 -4 -3 -3 -2 -2 -2 -1 -1
-3 -2 -2 -2 -2 -3 -3 -3 -3 -3 -3 -3 -3 -3 -2 -2 -3 -3 -3 -3 -3 -3 -3 -3 -3 -3 -3 -3 -3 -3 -2 -2 -2 -3 -3 -3 -3 -2 -2 -2 -2 -1 -1
-2 -2 -2 -2 -2 -3 -3 -3 -3 -3 -3 -3 -3 -2 -2 -2 -3 -3 -3 -3 -2 -2 -2 -3 -3 -3 -3 -2 -2 -1 -1 -1 -1 -1 -1 -1 -1 -1 -1 -1 -1 -1 -1
-1 -2 -2 -2 -2 -3 -3 -3 -3 -3 -3 -3 -3 -2 -2 -3 -3 -3 -3 -2 -2 -2 -1 -1 -1 -1 -1 -1 -1 -0 -0 -0 0 0 0 0 0 -0 -0 -0 -1 -1 -1
-1 -2 -2 -2 -2 -2 -2 -2 -2 -2 -2 -3 -3 -3 -3 -3 -3 -4 -3 -2 -2 -1 -1 -0 -0 -0 -0 -0 0 0 1 1 1 1 1 1 1 1 1 1 1 1 1
-1 -2 -2 -2 -2 -2 -2 -1 -1 -2 -2 -2 -3 -3 -3 -3 -4 -4 -3 -2 -2 -1 -0 0 0 0 1 1 1 1 1 1 2 2 2 2 2 2 2 2 2 2 2
-1 -1 -1 -1 -1 -1 -1 -1 -1 -1 -1 -1 -2 -2 -3 -3 -3 -3 -3 -3 -2 -2 -1 0 1 1 1 1 1 2 2 2 2 3 3 3 3 3 4 4 4 4 4
-1 -1 -1 -0 -0 -0 -0 -0 0 0 0 -0 -1 -1 -2 -2 -3 -3 -3 -3 -3 -2 -1 1 1 1 1 1 2 2 3 3 3 4 4 4 4 5 5 5 5 5 5
-1 -0 -0 -0 0 0 1 1 1 1 1 1 1 0 -0 -1 -2 -2 -3 -3 -3 -2 -0 1 1 2 2 2 2 3 3 4 4 4 5 5 5 6 6 6 6 6 6
-0 -0 0 0 1 1 1 1 2 2 2 2 2 1 1 0 -0 -1 -1 -1 -2 -1 0 1 1 2 2 3 3 4 4 4 5 5 6 6 7 7 7 8 8 8 8
-0 -0 0 1 1 1 2 2 2 2 3 3 3 3 2 2 1 1 0 0 0 1 1 1 1 2 3 3 4 4 4 5 5 6 7 8 8 9 9 9 9 9 9
-0 -0 0 1 2 2 2 3 3 3 3 3 3 4 4 4 3 2 1 1 1 2 2 2 2 2 3 4 4 4 5 5 6 7 8 9 9 10 10 10 10 10 10
-1 -0 0 1 2 3 4 4 4 4 4 4 4 5 5 6 5 4 3 2 2 2 2 3 3 3 4 4 5 5 6 6 7 8 8 9 9 9 10 11 11 12 12
-1 -0 0 1 3 4 5 5 5 5 5 5 5 5 5 6 6 5 4 4 3 3 3 3 4 4 4 5 5 6 6 6 7 7 7 8 8 9 10 11 13 14 14
-1 -0 0 1 3 4 5 5 5 5 5 5 5 5 5 6 6 6 6 6 6 5 5 5 5 5 5 5 5 5 5 5 6 6 6 7 8 8 9 11 13 14 14
-1 -0 0 1 2 4 5 5 4 4 4 4 5 5 6 6 6 7 8 8 8 9 9 9 9 9 8 8 7 6 5 6 6 6 6 6 7 8 8 9 11 12 13
-1 -1 -0 1 2 3 4 4 4 3 4 4 5 5 6 7 7 7 7 8 9 10 10 11 11 12 11 11 10 8 7 7 7 6 5 6 6 7 7 7 8 10 10
-2 -1 -0 1 2 3 4 4 3 3 4 4 5 5 6 6 7 7 7 7 8 9 10 10 11 11 11 11 11 9 9 9 8 6 5 5 6 6 6 6 7 8 8